QPF
0.02 0.02 0.01 0.01 0.00 0.00 0.00 0.00 0.00 0.00 0.00 0.00 0.00 0.00 0.00 0.00 0.00 0.00 0.00 0.00 0.01 0.01 0.01 0.01 0.01 0.01 0.01 0.01 0.01 0.01 0.01 0.01 0.01 0.01 0.01 0.02 0.04 0.06 0.03 0.02 0.01 0.01 0.02
0.01 0.02 0.02 0.01 0.00 0.00 0.00 0.00 0.00 0.00 0.00 0.00 0.00 0.00 0.00 0.00 0.00 0.00 0.00 0.00 0.01 0.01 0.00 0.00 0.01 0.01 0.01 0.01 0.01 0.01 0.01 0.02 0.03 0.02 0.02 0.03 0.05 0.08 0.07 0.04 0.02 0.01 0.01
0.01 0.02 0.01 0.01 0.00 0.00 0.00 0.00 0.00 0.00 0.00 0.00 0.00 0.00 0.00 0.00 0.00 0.00 0.00 0.00 0.01 0.01 0.00 0.00 0.00 0.00 0.00 0.01 0.01 0.02 0.03 0.03 0.06 0.05 0.03 0.02 0.04 0.07 0.07 0.05 0.03 0.01 0.01
0.02 0.02 0.01 0.00 0.01 0.00 0.00 0.00 0.00 0.00 0.00 0.00 0.00 0.00 0.00 0.00 0.00 0.00 0.00 0.00 0.00 0.00 0.01 0.00 0.00 0.00 0.01 0.01 0.01 0.02 0.04 0.05 0.08 0.08 0.02 0.02 0.03 0.04 0.04 0.04 0.03 0.01 0.01
0.03 0.02 0.01 0.00 0.01 0.00 0.00 0.00 0.00 0.00 0.00 0.00 0.00 0.00 0.00 0.00 0.00 0.00 0.00 0.00 0.00 0.00 0.00 0.00 0.00 0.01 0.01 0.02 0.02 0.02 0.03 0.03 0.07 0.08 0.04 0.04 0.03 0.04 0.04 0.03 0.02 0.01 0.01
0.03 0.02 0.02 0.01 0.01 0.01 0.01 0.01 0.01 0.00 0.00 0.00 0.00 0.00 0.00 0.00 0.00 0.00 0.00 0.00 0.00 0.00 0.00 0.00 0.00 0.01 0.01 0.02 0.02 0.03 0.03 0.04 0.04 0.04 0.04 0.04 0.04 0.06 0.05 0.03 0.03 0.02 0.01
0.02 0.03 0.03 0.02 0.02 0.02 0.01 0.01 0.01 0.00 0.00 0.00 0.00 0.00 0.00 0.00 0.00 0.00 0.01 0.01 0.01 0.01 0.01 0.01 0.01 0.01 0.01 0.02 0.02 0.03 0.04 0.05 0.03 0.03 0.03 0.04 0.04 0.07 0.08 0.06 0.04 0.03 0.02
0.02 0.02 0.03 0.03 0.03 0.02 0.02 0.01 0.01 0.01 0.01 0.00 0.00 0.00 0.00 0.00 0.00 0.00 0.01 0.01 0.01 0.01 0.01 0.01 0.01 0.01 0.01 0.01 0.01 0.02 0.03 0.04 0.03 0.03 0.03 0.03 0.04 0.07 0.09 0.09 0.07 0.04 0.03
0.01 0.01 0.01 0.03 0.03 0.02 0.02 0.01 0.01 0.01 0.01 0.01 0.01 0.00 0.00 0.00 0.00 0.01 0.01 0.02 0.02 0.02 0.02 0.02 0.02 0.01 0.01 0.01 0.01 0.02 0.03 0.04 0.02 0.02 0.02 0.03 0.04 0.08 0.11 0.11 0.10 0.09 0.05
0.02 0.01 0.01 0.02 0.02 0.03 0.03 0.03 0.02 0.02 0.01 0.01 0.01 0.01 0.01 0.01 0.01 0.02 0.02 0.03 0.03 0.03 0.03 0.03 0.02 0.02 0.02 0.02 0.03 0.03 0.03 0.03 0.02 0.01 0.02 0.02 0.05 0.10 0.15 0.13 0.11 0.10 0.08
0.03 0.03 0.03 0.04 0.03 0.03 0.03 0.03 0.02 0.02 0.01 0.01 0.01 0.01 0.01 0.01 0.01 0.01 0.01 0.02 0.03 0.03 0.03 0.03 0.03 0.03 0.03 0.03 0.04 0.05 0.03 0.02 0.01 0.01 0.01 0.03 0.07 0.11 0.15 0.14 0.12 0.11 0.12
0.04 0.03 0.05 0.06 0.06 0.06 0.04 0.04 0.04 0.03 0.02 0.01 0.01 0.01 0.01 0.01 0.01 0.01 0.01 0.02 0.03 0.03 0.04 0.04 0.05 0.05 0.04 0.02 0.02 0.03 0.02 0.02 0.02 0.02 0.03 0.06 0.08 0.12 0.17 0.17 0.14 0.14 0.14
0.04 0.05 0.06 0.06 0.06 0.04 0.04 0.04 0.03 0.03 0.02 0.02 0.01 0.01 0.01 0.01 0.01 0.01 0.01 0.01 0.02 0.02 0.02 0.03 0.04 0.03 0.02 0.02 0.03 0.02 0.02 0.02 0.03 0.03 0.04 0.07 0.10 0.14 0.18 0.19 0.17 0.14 0.15
0.05 0.05 0.04 0.04 0.04 0.05 0.05 0.05 0.04 0.03 0.02 0.02 0.02 0.01 0.01 0.01 0.01 0.01 0.01 0.00 0.01 0.01 0.01 0.01 0.02 0.02 0.03 0.03 0.03 0.02 0.02 0.03 0.04 0.04 0.05 0.07 0.09 0.12 0.17 0.20 0.19 0.17 0.15
0.05 0.06 0.04 0.03 0.03 0.03 0.03 0.03 0.03 0.03 0.03 0.02 0.02 0.01 0.02 0.02 0.01 0.01 0.01 0.01 0.02 0.02 0.02 0.03 0.03 0.03 0.03 0.03 0.03 0.02 0.02 0.02 0.03 0.03 0.04 0.05 0.07 0.11 0.15 0.19 0.19 0.19 0.18
0.06 0.05 0.05 0.04 0.03 0.04 0.04 0.04 0.03 0.03 0.03 0.03 0.03 0.02 0.03 0.02 0.02 0.02 0.02 0.02 0.03 0.03 0.03 0.03 0.03 0.03 0.03 0.02 0.03 0.03 0.02 0.02 0.02 0.04 0.05 0.05 0.07 0.09 0.12 0.15 0.17 0.19 0.19
0.06 0.05 0.07 0.07 0.05 0.05 0.05 0.03 0.03 0.03 0.02 0.03 0.03 0.04 0.04 0.04 0.04 0.03 0.03 0.03 0.03 0.03 0.03 0.03 0.04 0.04 0.04 0.04 0.03 0.03 0.03 0.02 0.02 0.04 0.05 0.05 0.06 0.08 0.10 0.11 0.13 0.15 0.15
0.07 0.06 0.07 0.08 0.05 0.04 0.05 0.03 0.03 0.02 0.01 0.01 0.02 0.02 0.02 0.03 0.04 0.04 0.04 0.03 0.03 0.03 0.03 0.04 0.05 0.08 0.06 0.05 0.05 0.04 0.04 0.05 0.04 0.04 0.05 0.06 0.06 0.05 0.06 0.08 0.09 0.10 0.12
0.06 0.07 0.06 0.06 0.05 0.05 0.05 0.04 0.02 0.02 0.01 0.01 0.00 0.01 0.01 0.02 0.03 0.05 0.05 0.03 0.03 0.03 0.04 0.04 0.06 0.07 0.06 0.06 0.07 0.06 0.05 0.05 0.05 0.05 0.05 0.05 0.04 0.05 0.05 0.06 0.08 0.08 0.09
0.08 0.08 0.08 0.06 0.05 0.06 0.05 0.04 0.03 0.03 0.03 0.02 0.02 0.02 0.02 0.03 0.03 0.04 0.04 0.05 0.04 0.03 0.04 0.04 0.05 0.06 0.06 0.07 0.06 0.05 0.06 0.04 0.05 0.05 0.05 0.05 0.04 0.04 0.04 0.03 0.05 0.05 0.07
0.10 0.10 0.10 0.09 0.09 0.08 0.09 0.05 0.04 0.03 0.03 0.03 0.03 0.03 0.03 0.03 0.04 0.04 0.03 0.05 0.05 0.04 0.04 0.04 0.04 0.05 0.05 0.06 0.06 0.05 0.05 0.04 0.05 0.05 0.04 0.05 0.05 0.04 0.04 0.03 0.03 0.04 0.04
0.11 0.13 0.15 0.11 0.09 0.06 0.10 0.10 0.05 0.04 0.04 0.03 0.02 0.02 0.02 0.02 0.03 0.03 0.04 0.04 0.05 0.06 0.04 0.03 0.04 0.04 0.03 0.04 0.05 0.05 0.04 0.05 0.05 0.04 0.04 0.04 0.05 0.05 0.04 0.03 0.02 0.02 0.03
0.07 0.09 0.12 0.13 0.09 0.06 0.09 0.12 0.06 0.04 0.03 0.03 0.02 0.02 0.01 0.01 0.02 0.02 0.03 0.04 0.06 0.06 0.05 0.04 0.04 0.04 0.04 0.03 0.03 0.03 0.03 0.03 0.03 0.04 0.04 0.04 0.04 0.04 0.04 0.02 0.02 0.02 0.02
0.05 0.05 0.05 0.08 0.09 0.10 0.10 0.10 0.08 0.05 0.04 0.03 0.04 0.03 0.03 0.02 0.02 0.02 0.02 0.03 0.04 0.04 0.04 0.04 0.04 0.04 0.04 0.04 0.03 0.03 0.03 0.04 0.05 0.04 0.03 0.04 0.04 0.04 0.04 0.03 0.02 0.02 0.03
0.05 0.05 0.04 0.04 0.07 0.11 0.17 0.15 0.10 0.06 0.05 0.06 0.05 0.05 0.04 0.03 0.03 0.03 0.03 0.04 0.04 0.03 0.03 0.02 0.02 0.02 0.02 0.03 0.03 0.03 0.03 0.03 0.04 0.04 0.03 0.03 0.04 0.05 0.04 0.03 0.03 0.03 0.03
0.05 0.05 0.05 0.05 0.08 0.10 0.16 0.18 0.12 0.07 0.06 0.08 0.07 0.07 0.06 0.04 0.03 0.04 0.04 0.04 0.04 0.04 0.04 0.03 0.02 0.01 0.01 0.01 0.02 0.02 0.03 0.04 0.04 0.05 0.05 0.03 0.03 0.05 0.06 0.03 0.02 0.02 0.02
MSLP
1014.68 1014.34 1014.20 1014.26 1014.47 1014.76 1015.05 1015.28 1015.43 1015.52 1015.57 1015.64 1015.78 1016.01 1016.33 1016.70 1017.07 1017.41 1017.66 1017.83 1017.90 1017.93 1017.93 1017.94 1017.98 1018.07 1018.18 1018.30 1018.40 1018.48 1018.53 1018.56 1018.59 1018.63 1018.69 1018.78 1018.90 1019.03 1019.15 1019.27 1019.36 1019.43 1019.49
1014.44 1014.21 1014.16 1014.30 1014.58 1014.92 1015.25 1015.51 1015.69 1015.80 1015.88 1015.98 1016.14 1016.39 1016.71 1017.07 1017.42 1017.73 1017.94 1018.07 1018.13 1018.14 1018.14 1018.16 1018.21 1018.30 1018.41 1018.51 1018.59 1018.63 1018.65 1018.66 1018.66 1018.70 1018.77 1018.88 1019.01 1019.16 1019.30 1019.42 1019.51 1019.59 1019.67
1014.18 1014.05 1014.10 1014.33 1014.68 1015.07 1015.44 1015.74 1015.95 1016.09 1016.20 1016.33 1016.50 1016.75 1017.06 1017.38 1017.69 1017.94 1018.11 1018.21 1018.24 1018.25 1018.26 1018.30 1018.38 1018.48 1018.59 1018.68 1018.73 1018.75 1018.75 1018.73 1018.73 1018.77 1018.84 1018.96 1019.11 1019.26 1019.40 1019.52 1019.62 1019.71 1019.79
1013.95 1013.93 1014.07 1014.37 1014.78 1015.21 1015.62 1015.95 1016.19 1016.36 1016.50 1016.64 1016.82 1017.06 1017.33 1017.60 1017.85 1018.05 1018.17 1018.22 1018.25 1018.26 1018.30 1018.37 1018.48 1018.60 1018.72 1018.81 1018.85 1018.85 1018.83 1018.80 1018.79 1018.83 1018.91 1019.04 1019.18 1019.33 1019.46 1019.57 1019.67 1019.76 1019.86
1013.85 1013.91 1014.12 1014.46 1014.90 1015.36 1015.78 1016.13 1016.38 1016.57 1016.72 1016.87 1017.05 1017.26 1017.50 1017.72 1017.91 1018.05 1018.12 1018.16 1018.17 1018.21 1018.27 1018.39 1018.53 1018.68 1018.81 1018.90 1018.94 1018.93 1018.89 1018.86 1018.85 1018.89 1018.98 1019.10 1019.23 1019.36 1019.48 1019.57 1019.66 1019.75 1019.87
1013.92 1014.02 1014.27 1014.63 1015.06 1015.51 1015.92 1016.25 1016.50 1016.69 1016.85 1017.01 1017.19 1017.38 1017.58 1017.76 1017.90 1017.99 1018.03 1018.05 1018.07 1018.12 1018.22 1018.37 1018.55 1018.72 1018.87 1018.96 1018.99 1018.98 1018.94 1018.90 1018.90 1018.94 1019.02 1019.14 1019.25 1019.36 1019.45 1019.52 1019.59 1019.68 1019.81
1014.18 1014.30 1014.54 1014.88 1015.28 1015.68 1016.04 1016.34 1016.56 1016.74 1016.90 1017.07 1017.25 1017.43 1017.62 1017.77 1017.88 1017.94 1017.96 1017.96 1017.98 1018.05 1018.18 1018.34 1018.54 1018.73 1018.88 1018.97 1019.00 1018.99 1018.95 1018.92 1018.92 1018.96 1019.04 1019.14 1019.23 1019.31 1019.37 1019.41 1019.47 1019.55 1019.69
1014.60 1014.71 1014.92 1015.21 1015.55 1015.88 1016.17 1016.41 1016.60 1016.76 1016.92 1017.09 1017.28 1017.47 1017.66 1017.80 1017.89 1017.93 1017.93 1017.93 1017.94 1018.01 1018.14 1018.31 1018.51 1018.70 1018.84 1018.93 1018.95 1018.94 1018.90 1018.87 1018.87 1018.92 1018.99 1019.08 1019.15 1019.21 1019.24 1019.27 1019.31 1019.39 1019.54
1015.14 1015.23 1015.40 1015.63 1015.89 1016.14 1016.36 1016.53 1016.67 1016.81 1016.96 1017.14 1017.34 1017.55 1017.74 1017.89 1017.97 1018.00 1017.98 1017.96 1017.96 1018.01 1018.12 1018.27 1018.45 1018.61 1018.74 1018.82 1018.83 1018.81 1018.78 1018.75 1018.76 1018.80 1018.87 1018.95 1019.01 1019.05 1019.07 1019.09 1019.12 1019.21 1019.37
1015.74 1015.82 1015.95 1016.13 1016.32 1016.48 1016.62 1016.73 1016.82 1016.93 1017.07 1017.26 1017.48 1017.71 1017.91 1018.06 1018.14 1018.15 1018.11 1018.06 1018.02 1018.03 1018.09 1018.20 1018.34 1018.47 1018.58 1018.63 1018.64 1018.62 1018.58 1018.56 1018.57 1018.61 1018.68 1018.74 1018.80 1018.84 1018.86 1018.87 1018.91 1019.01 1019.18
1016.38 1016.44 1016.56 1016.69 1016.82 1016.92 1016.99 1017.04 1017.09 1017.17 1017.31 1017.49 1017.72 1017.95 1018.16 1018.31 1018.38 1018.36 1018.29 1018.19 1018.10 1018.05 1018.06 1018.11 1018.20 1018.29 1018.36 1018.40 1018.40 1018.37 1018.34 1018.32 1018.32 1018.36 1018.41 1018.47 1018.53 1018.57 1018.59 1018.63 1018.69 1018.80 1018.99
1017.01 1017.09 1017.20 1017.31 1017.39 1017.45 1017.46 1017.47 1017.49 1017.54 1017.66 1017.84 1018.06 1018.29 1018.48 1018.61 1018.66 1018.61 1018.50 1018.34 1018.20 1018.08 1018.02 1018.00 1018.03 1018.08 1018.12 1018.14 1018.14 1018.11 1018.07 1018.05 1018.04 1018.06 1018.10 1018.14 1018.20 1018.24 1018.29 1018.34 1018.43 1018.57 1018.77
1017.65 1017.74 1017.86 1017.95 1018.01 1018.03 1018.02 1018.00 1017.99 1018.02 1018.12 1018.27 1018.47 1018.67 1018.84 1018.94 1018.95 1018.86 1018.70 1018.50 1018.29 1018.11 1017.98 1017.90 1017.88 1017.88 1017.90 1017.90 1017.89 1017.86 1017.81 1017.77 1017.74 1017.73 1017.74 1017.77 1017.82 1017.86 1017.93 1018.02 1018.14 1018.31 1018.53
1018.28 1018.39 1018.50 1018.59 1018.64 1018.65 1018.62 1018.58 1018.55 1018.57 1018.64 1018.76 1018.92 1019.07 1019.20 1019.26 1019.22 1019.10 1018.90 1018.65 1018.39 1018.16 1017.97 1017.84 1017.76 1017.73 1017.72 1017.71 1017.68 1017.64 1017.58 1017.52 1017.46 1017.41 1017.38 1017.37 1017.39 1017.44 1017.52 1017.64 1017.79 1018.00 1018.24
1018.90 1019.02 1019.12 1019.19 1019.23 1019.23 1019.20 1019.16 1019.13 1019.13 1019.17 1019.25 1019.36 1019.46 1019.53 1019.54 1019.47 1019.31 1019.08 1018.80 1018.50 1018.23 1018.00 1017.82 1017.71 1017.64 1017.60 1017.57 1017.53 1017.47 1017.39 1017.29 1017.18 1017.08 1017.00 1016.95 1016.94 1016.97 1017.06 1017.20 1017.39 1017.62 1017.89
1019.51 1019.60 1019.67 1019.72 1019.75 1019.75 1019.73 1019.70 1019.67 1019.66 1019.67 1019.71 1019.76 1019.81 1019.82 1019.78 1019.67 1019.49 1019.24 1018.95 1018.64 1018.34 1018.08 1017.87 1017.72 1017.62 1017.54 1017.48 1017.42 1017.33 1017.22 1017.08 1016.92 1016.76 1016.62 1016.52 1016.46 1016.48 1016.56 1016.71 1016.92 1017.19 1017.48
1020.08 1020.12 1020.14 1020.16 1020.17 1020.18 1020.17 1020.16 1020.15 1020.14 1020.14 1020.13 1020.13 1020.11 1020.06 1019.98 1019.84 1019.64 1019.39 1019.10 1018.80 1018.49 1018.21 1017.97 1017.78 1017.64 1017.52 1017.43 1017.33 1017.20 1017.05 1016.87 1016.66 1016.45 1016.25 1016.09 1015.99 1015.98 1016.05 1016.20 1016.43 1016.72 1017.04
1020.60 1020.57 1020.54 1020.51 1020.51 1020.52 1020.54 1020.57 1020.58 1020.58 1020.56 1020.53 1020.47 1020.38 1020.28 1020.15 1019.98 1019.78 1019.54 1019.27 1018.97 1018.67 1018.38 1018.11 1017.87 1017.68 1017.52 1017.37 1017.22 1017.06 1016.87 1016.65 1016.40 1016.14 1015.89 1015.69 1015.56 1015.51 1015.57 1015.72 1015.96 1016.26 1016.59
1021.04 1020.95 1020.86 1020.80 1020.79 1020.82 1020.88 1020.94 1020.99 1021.01 1020.98 1020.91 1020.80 1020.65 1020.49 1020.31 1020.13 1019.92 1019.69 1019.43 1019.15 1018.86 1018.55 1018.26 1017.98 1017.73 1017.50 1017.30 1017.10 1016.90 1016.67 1016.42 1016.14 1015.85 1015.57 1015.34 1015.19 1015.12 1015.17 1015.31 1015.55 1015.85 1016.20
1021.42 1021.28 1021.15 1021.07 1021.06 1021.11 1021.21 1021.32 1021.41 1021.45 1021.41 1021.30 1021.14 1020.94 1020.72 1020.49 1020.27 1020.06 1019.84 1019.60 1019.34 1019.05 1018.73 1018.41 1018.08 1017.77 1017.48 1017.22 1016.97 1016.72 1016.46 1016.19 1015.90 1015.60 1015.32 1015.09 1014.93 1014.86 1014.89 1015.03 1015.26 1015.56 1015.90
1021.77 1021.60 1021.44 1021.36 1021.35 1021.44 1021.58 1021.74 1021.86 1021.91 1021.87 1021.73 1021.52 1021.25 1020.97 1020.70 1020.44 1020.21 1019.99 1019.77 1019.52 1019.23 1018.91 1018.56 1018.19 1017.83 1017.48 1017.15 1016.85 1016.57 1016.29 1016.00 1015.72 1015.43 1015.17 1014.95 1014.80 1014.74 1014.78 1014.92 1015.14 1015.42 1015.74
1022.10 1021.93 1021.78 1021.70 1021.72 1021.83 1022.01 1022.20 1022.34 1022.41 1022.35 1022.18 1021.92 1021.59 1021.25 1020.92 1020.63 1020.38 1020.16 1019.94 1019.70 1019.42 1019.10 1018.72 1018.32 1017.91 1017.51 1017.14 1016.79 1016.47 1016.18 1015.89 1015.62 1015.36 1015.13 1014.95 1014.83 1014.80 1014.85 1014.99 1015.20 1015.46 1015.74
1022.44 1022.31 1022.17 1022.11 1022.14 1022.27 1022.47 1022.68 1022.84 1022.90 1022.83 1022.63 1022.31 1021.94 1021.54 1021.16 1020.83 1020.55 1020.32 1020.11 1019.88 1019.61 1019.29 1018.91 1018.49 1018.05 1017.62 1017.20 1016.82 1016.47 1016.16 1015.88 1015.62 1015.39 1015.20 1015.07 1014.99 1014.99 1015.07 1015.22 1015.42 1015.66 1015.90
1022.81 1022.72 1022.61 1022.56 1022.60 1022.74 1022.94 1023.14 1023.30 1023.35 1023.26 1023.03 1022.68 1022.25 1021.81 1021.39 1021.02 1020.72 1020.48 1020.27 1020.05 1019.79 1019.48 1019.11 1018.69 1018.24 1017.78 1017.34 1016.93 1016.56 1016.23 1015.95 1015.70 1015.50 1015.35 1015.26 1015.24 1015.28 1015.40 1015.56 1015.77 1015.99 1016.20
1023.20 1023.15 1023.06 1023.02 1023.05 1023.16 1023.34 1023.53 1023.66 1023.70 1023.59 1023.33 1022.96 1022.51 1022.03 1021.58 1021.19 1020.87 1020.62 1020.40 1020.18 1019.94 1019.65 1019.30 1018.89 1018.45 1017.99 1017.54 1017.11 1016.72 1016.37 1016.07 1015.83 1015.65 1015.53 1015.47 1015.50 1015.59 1015.74 1015.95 1016.17 1016.38 1016.57
1023.57 1023.56 1023.48 1023.42 1023.42 1023.50 1023.63 1023.78 1023.89 1023.90 1023.78 1023.51 1023.14 1022.68 1022.19 1021.73 1021.32 1020.98 1020.71 1020.48 1020.27 1020.04 1019.77 1019.44 1019.06 1018.63 1018.18 1017.73 1017.29 1016.88 1016.52 1016.20 1015.94 1015.76 1015.65 1015.63 1015.69 1015.83 1016.04 1016.28 1016.54 1016.77 1016.95
Thickness
5782 5782 5780 5778 5776 5775 5774 5773 5772 5770 5769 5768 5766 5764 5761 5759 5757 5756 5754 5753 5751 5750 5749 5748 5747 5745 5745 5744 5743 5742 5741 5741 5740 5739 5738 5737 5737 5736 5735 5735 5734 5733 5732
5786 5782 5779 5777 5775 5773 5771 5770 5768 5767 5766 5764 5762 5760 5758 5756 5754 5753 5751 5750 5748 5748 5747 5745 5744 5743 5742 5741 5740 5739 5738 5738 5737 5737 5736 5736 5735 5734 5733 5733 5732 5731 5730
5785 5782 5778 5775 5773 5771 5769 5767 5765 5764 5762 5760 5758 5756 5755 5753 5751 5750 5748 5747 5746 5744 5744 5743 5741 5740 5739 5738 5737 5737 5736 5735 5735 5734 5734 5733 5733 5732 5731 5731 5730 5729 5728
5783 5779 5776 5773 5771 5769 5766 5764 5762 5760 5758 5757 5755 5753 5751 5750 5748 5747 5745 5744 5743 5741 5740 5739 5739 5737 5736 5735 5735 5734 5733 5733 5733 5732 5731 5731 5730 5730 5730 5729 5728 5727 5726
5779 5776 5773 5771 5768 5766 5763 5761 5759 5757 5755 5753 5751 5749 5747 5746 5744 5743 5742 5741 5739 5738 5737 5736 5735 5734 5734 5733 5732 5732 5731 5731 5730 5730 5729 5729 5728 5728 5727 5727 5726 5725 5724
5775 5772 5770 5767 5765 5763 5760 5758 5755 5753 5751 5749 5747 5745 5744 5742 5741 5739 5738 5737 5736 5735 5734 5733 5732 5731 5731 5730 5730 5729 5729 5729 5729 5728 5727 5727 5726 5726 5725 5725 5724 5723 5722
5771 5769 5766 5764 5762 5760 5757 5755 5752 5750 5747 5745 5743 5742 5740 5738 5737 5735 5735 5734 5732 5731 5730 5729 5729 5728 5728 5728 5727 5727 5727 5727 5726 5726 5725 5725 5725 5724 5723 5722 5722 5721 5720
5768 5765 5763 5760 5758 5756 5753 5751 5748 5746 5743 5741 5739 5738 5736 5735 5733 5732 5731 5730 5729 5728 5727 5726 5726 5725 5725 5724 5724 5724 5725 5725 5724 5724 5723 5723 5723 5722 5721 5721 5720 5719 5718
5763 5761 5758 5756 5754 5751 5749 5747 5744 5742 5739 5737 5735 5734 5732 5731 5730 5728 5727 5726 5725 5725 5724 5723 5723 5722 5722 5721 5721 5722 5722 5722 5722 5721 5721 5721 5721 5720 5720 5719 5718 5717 5716
5758 5755 5753 5751 5749 5747 5744 5742 5739 5737 5735 5733 5731 5729 5728 5727 5725 5724 5723 5723 5722 5721 5720 5720 5719 5719 5719 5718 5718 5719 5719 5719 5719 5719 5719 5719 5719 5719 5718 5717 5716 5715 5714
5751 5749 5747 5745 5743 5741 5739 5737 5734 5732 5729 5728 5726 5724 5723 5722 5721 5720 5719 5719 5718 5717 5716 5716 5716 5716 5715 5715 5715 5716 5716 5716 5716 5716 5717 5717 5717 5717 5716 5716 5715 5714 5713
5743 5742 5742 5740 5738 5736 5734 5731 5729 5726 5724 5722 5720 5719 5718 5716 5715 5714 5714 5713 5713 5712 5712 5712 5712 5712 5712 5712 5712 5712 5713 5713 5713 5713 5714 5715 5715 5715 5715 5714 5713 5712 5711
5738 5737 5735 5734 5732 5730 5728 5725 5723 5721 5719 5717 5715 5714 5713 5711 5709 5708 5708 5707 5707 5707 5706 5706 5707 5707 5707 5707 5708 5708 5709 5710 5710 5710 5711 5712 5713 5714 5714 5713 5712 5711 5710
5732 5731 5730 5728 5726 5724 5722 5720 5717 5715 5713 5711 5710 5709 5707 5705 5703 5702 5701 5700 5700 5700 5700 5700 5700 5701 5702 5703 5703 5704 5705 5706 5706 5707 5708 5709 5710 5711 5711 5711 5710 5709 5709
5726 5725 5724 5723 5721 5719 5717 5714 5711 5709 5707 5705 5704 5703 5702 5699 5697 5696 5695 5694 5694 5694 5694 5694 5694 5695 5696 5697 5698 5698 5699 5700 5701 5703 5704 5705 5706 5707 5708 5708 5708 5707 5707
5721 5720 5719 5717 5716 5715 5712 5709 5706 5704 5702 5699 5698 5697 5696 5693 5691 5690 5689 5689 5688 5688 5688 5688 5688 5689 5689 5691 5692 5692 5693 5695 5696 5698 5699 5701 5702 5703 5704 5705 5705 5705 5705
5716 5715 5714 5712 5710 5708 5706 5703 5701 5698 5696 5694 5692 5690 5689 5687 5685 5685 5684 5683 5682 5682 5682 5682 5683 5683 5684 5684 5685 5686 5688 5689 5691 5692 5694 5696 5697 5698 5699 5700 5701 5701 5701
5712 5710 5709 5707 5704 5702 5699 5697 5694 5692 5690 5688 5686 5684 5683 5681 5680 5679 5678 5677 5676 5676 5676 5676 5676 5676 5676 5677 5678 5680 5682 5683 5684 5686 5688 5689 5691 5692 5693 5694 5695 5696 5697
5707 5704 5702 5700 5697 5695 5692 5689 5688 5686 5684 5682 5680 5678 5677 5675 5674 5673 5671 5671 5670 5670 5670 5670 5669 5669 5669 5670 5671 5673 5674 5675 5677 5679 5680 5681 5683 5684 5686 5687 5688 5690 5692
5701 5699 5696 5693 5690 5688 5685 5682 5680 5678 5676 5675 5673 5672 5670 5669 5668 5667 5666 5664 5664 5663 5663 5663 5663 5662 5662 5662 5664 5665 5665 5667 5668 5670 5672 5673 5675 5676 5678 5679 5680 5682 5684
5695 5692 5689 5686 5684 5682 5679 5675 5673 5670 5669 5667 5666 5665 5664 5663 5662 5660 5659 5657 5656 5655 5655 5655 5655 5655 5654 5654 5655 5655 5656 5658 5660 5661 5662 5664 5666 5667 5669 5670 5672 5674 5675
5687 5684 5682 5680 5678 5676 5674 5671 5668 5665 5662 5659 5658 5658 5657 5656 5654 5653 5651 5650 5649 5648 5647 5647 5647 5646 5646 5646 5645 5645 5645 5647 5650 5652 5653 5654 5656 5658 5659 5661 5663 5665 5666
5681 5679 5677 5674 5672 5670 5668 5666 5662 5658 5655 5651 5650 5649 5648 5646 5645 5645 5644 5642 5641 5640 5639 5639 5638 5638 5637 5637 5637 5636 5636 5636 5637 5641 5642 5644 5646 5648 5650 5651 5654 5656 5658
5676 5673 5671 5668 5665 5663 5661 5658 5655 5649 5645 5642 5641 5639 5638 5637 5636 5636 5635 5634 5633 5631 5631 5631 5630 5629 5629 5628 5628 5628 5628 5629 5628 5630 5631 5633 5635 5638 5640 5642 5644 5647 5649
5670 5667 5664 5662 5659 5657 5655 5651 5647 5642 5638 5635 5633 5631 5630 5628 5628 5627 5626 5626 5624 5623 5623 5622 5622 5621 5621 5620 5620 5620 5620 5620 5621 5621 5623 5623 5625 5627 5630 5632 5635 5638 5641
5664 5661 5658 5655 5652 5650 5647 5644 5639 5635 5631 5628 5624 5622 5620 5620 5619 5619 5618 5617 5616 5615 5615 5614 5613 5613 5613 5612 5611 5612 5612 5613 5613 5613 5614 5615 5616 5617 5620 5623 5626 5629 5632